Regional Weather Roundup
Issued by NWS Kansas City/Pleasant Hill, MO

Home | Current Version | Previous Version | Graphics & Text | Print | Product List | Glossary Off
Versions: 1 2 3 4 5 6 7 8 9 10 11 12 13 14 15 16 17 18 19 20 21 22 23 24 25 26 27 28 29 30 31 32 33 34 35 36 37 38 39 40 41 42 43 44 45 46 47 48 49 50

000
ASUS43 KEAX 011410
RWREAX

WEATHER ROUNDUP FOR EASTERN KANSAS AND NORTHWEST MISSOURI
NATIONAL WEATHER SERVICE KANSAS CITY/PLEASANT HILL MO
800 AM CST SUN FEB 01 2015

KSZ040-057-103>105-MOZ028-029-037-043-011500-
...KANSAS CITY METROPOLITAN AREA...

CITY           SKY/WX    TMP DP  RH WIND       PRES   REMARKS
K.C. INTL      SNOW      32  32 100 NW6       29.73R VSB 1/4 WCI  26
K.C. DOWNTOWN  LGT RAIN  34  33  96 NW3       29.73R
LEES SUMMIT    LGT RAIN  33  32  96 N7        29.71S VSB 1/2 WCI  27
OLATHE - IXD   LGT RAIN  35  34  96 NW12      29.73R FOG     WCI  27
OLATHE - OJC   LGT RAIN  38  38 100 NW10      29.70R FOG     WCI  31
LAWRENCE       CLOUDY    33  32  96 NW9       29.75R FOG     WCI  25

$$

MOZ001>008-011>017-020>025-030>033-038>040-044>046-053-054-011500-
...NORTHERN AND CENTRAL MISSOURI...

CITY           SKY/WX    TMP DP  RH WIND       PRES   REMARKS
ST. JOSEPH     LGT SNOW  32  32 100 NW6       29.76R FOG     WCI  26
MOSBY          LGT RAIN  32  32 100 CALM      29.74R
WARRENSBURG    DRZL/FOG  34  32  93 CALM      29.70F VSB 1/2
WHITEMAN AFB   LGT RAIN  34  33  98 S3        29.70S FOG
CLINTON        DRIZZLE   37  37 100 S5        29.72F WCI  34
SEDALIA        LGT RAIN  34  34 100 S5        29.72F FOG     WCI  30
WARSAW         NOT AVBL
MARSHALL       MIX PCPN  36  36 100 SE3       29.73F
CHILLICOTHE      N/A     33  32  96 CALM      29.74S
MOBERLY        LGT SNOW  34  30  86 SE6       29.72F WCI  29
KIRKSVILLE     SNOW      33  33 100 E3        29.73F VSB 1/2

$$

MOZ041-047>049-056>058-063>065-088>090-097-011500-
...EASTERN AND SOUTHERN MISSOURI...

CITY           SKY/WX    TMP DP  RH WIND       PRES   REMARKS
ST. LOUIS INTL LGT RAIN  37  34  87 SE9       29.78F FOG     WCI  31
SPIRIT OF STL  CLOUDY    35  33  92 SE5       29.77F FOG     WCI  31
COLUMBIA       CLOUDY    34  33  96 SE7       29.71F FOG     WCI  28
JEFFERSON CITY CLOUDY    36  34  92 E6        29.73F FOG     WCI  31
MEXICO         CLOUDY   N/A N/A N/A SE6       29.73F FOG
ROLLA          CLOUDY    35  34  96 SE8       29.71F FOG     WCI  29
LEBANON        MIX PCPN  37  36  93 S5        29.72S WCI  34
OSAGE BEACH    CLOUDY    37  36  93 S6        29.72F WCI  33
SPRINGFIELD    LGT RAIN  40  38  93 S8        29.71F FOG     WCI  34
BRANSON        CLOUDY    45  45 100 W6        29.74S FOG
NEVADA         DRIZZLE   39  39 100 SW5       29.73S
JOPLIN         LGT RAIN  43  41  93 SW13      29.74S FOG
WEST PLAINS    CLOUDY    41  39  93 SW6       29.75F FOG

$$

IAZ060-094-KSZ022-034>040-054-083-096-NEZ052-066-093-011500-
...KANSAS...SOUTHEAST NEBRASKA AND IOWA...

CITY           SKY/WX    TMP DP  RH WIND       PRES   REMARKS
TOPEKA         FLURRIES  34  32  92 W10       29.78R WCI  26
MANHATTAN      LGT SNOW  29  26  89 N17G28    29.87R VSB 1   WCI  17
EMPORIA        CLOUDY    34  32  92 NW22G29   29.79R WCI  22
CHANUTE        LGT RAIN  42  40  92 NW25G31   29.75R WCI  32
WICHITA        CLOUDY    30  24  78 NW32G40   29.92R WCI  14
OMAHA          SNOW      23  21  92 N26G33    29.90R VSB 1/2 WCI   6
LINCOLN        LGT SNOW  22  18  85 N32G44    29.95R VSB 3/4 WCI   3
FALLS CITY     LGT SNOW  32  31  96 NW10      29.78R FOG     WCI  24
LAMONI         LGT SNOW  32  31  96 NE7       29.73S FOG     WCI  26
DES MOINES     LGT SNOW  33  30  88 NE12      29.79S VSB 3/4 WCI  24

$$




USA.gov is the U.S. government's official web portal to all federal, state and local government web resources and services.